Location: LDNL
(36.4545°S, 141.6685°E)
Time: 10:48:38
(UTC+10:00)

Tiros 1 despin weight - Pass Details

Date: 15 August 2022
Orbit: 590 x 639 km, 48.2° (Epoch: 23 September)

Event Time Altitude Azimuth Distance (km) Brightness Sun altitude
Rises 03:38:40 0° 234° (SW) 2,950 - -44.1°
Reaches altitude 10° 03:41:23 10° 220° (SW) 2,045 - -43.5°
Maximum altitude 03:45:15 24° 165° (SSE) 1,329 - -42.8°
Drops below altitude 10° 03:49:07 10° 110° (ESE) 2,048 - -42.0°
Exits shadow 03:49:21 - 108° (ESE) 2,120 ? -42.0°
Sets 03:51:50 0° 96° (E) 2,954 ? -41.5°
